{"data":{"norad_id":62249,"epoch":"2026-05-25T03:53:52.095264Z","epoch_age_seconds":71095,"freshness":"FRESH","line1":"1 62249U 24232N   26145.16240851  .00000105  00000+0  14390-3 0  9996","line2":"2 62249  89.0101  24.7999 0019116  87.4573 272.8766 13.51008974121310","mean_motion":13.51008974,"eccentricity":0.0019116,"inclination_deg":89.0101,"raan_deg":24.7999,"arg_perigee_deg":87.4573,"mean_anomaly_deg":272.8766,"bstar":0.0001439,"rev_number":12131,"period_min":106.58700480253,"perigee_km":1054.3135247298,"apogee_km":1082.7836931499,"semimajor_km":7446.6856089399,"source":"CELESTRAK","updated_at":"2026-05-25T13:38:02.868471Z"}}